Tracking 29892 objects as of 21-Nov-2024
HD Live streaming from Space Station
objects crossing your sky now

ATLAS 2 CENTAUR R/B

Track ATLAS 2 CENTAUR R/B now!
10-day predictions


NORAD ID: 23590
Int'l Code: 1995-027B
Perigee: 308.1 km
Apogee: 19,180.8 km
Inclination: 26.9 °
Period: 339.3 minutes
Semi major axis: 16115 km
RCS: 14.5648 m2 (large)
Launch date: May 31, 1995
Source: United States (US)
Launch site: AIR FORCE EASTERN TEST RANGE (AFETR)

Note: This is a ROCKET BODY
Your satellite tracking list
Your tracking list is empty




NASA's NSSDC Master Catalog

Two Line Element Set (TLE):
1 23590U 95027B   24325.64551110  .00009159  00000-0  23498-2 0  9993
2 23590  26.8516  16.1796 5855486 178.7940 183.7576  4.24364621392021
Source of the keplerian elements: AFSPC